Location: Unspecified
(29.9680°N, 0.0000°E)
Time: 04:04:15
(UTC+00:00)

Vanguard 1 Rocket - Visible Passes

Search period start: 17 June 2019 00:00
Search period end: 27 June 2019 00:00
Orbit: 652 x 4224 km, 34.3° (Epoch: 15 June)

Date Brightness Start Highest point End Pass type
(mag) Time Alt. Az. Time Alt. Az. Time Alt. Az.
17 Jun 7.9 21:12:06 10° W 21:20:25 60° N 21:23:08 29° ENE visible
18 Jun 8.4 19:57:41 10° W 20:08:54 66° N 20:14:50 10° ENE visible
18 Jun 8.0 22:28:16 10° WNW 22:33:08 46° WNW 22:33:08 46° WNW visible
19 Jun 7.8 21:15:03 10° WNW 21:23:37 65° N 21:25:52 36° ENE visible
20 Jun 8.5 20:00:38 10° W 20:12:02 65° N 20:18:03 10° E visible
20 Jun 8.2 22:31:11 10° WNW 22:35:51 41° WNW 22:35:51 41° WNW visible
21 Jun 7.6 21:17:57 10° WNW 21:26:47 74° NNE 21:28:33 46° E visible
22 Jun 8.4 20:03:34 10° W 20:15:12 67° N 20:21:15 10° E visible
22 Jun 8.5 22:34:08 10° WNW 22:38:31 35° W 22:38:31 35° W visible
23 Jun 7.4 21:20:49 10° WNW 21:29:52 88° NNE 21:31:13 57° ESE visible
24 Jun 8.3 20:06:26 10° WNW 20:18:21 72° N 20:23:54 14° E visible
24 Jun 8.8 22:37:10 10° WNW 22:41:10 28° W 22:41:10 28° W visible
25 Jun 7.4 21:23:38 10° WNW 21:32:52 75° SSW 21:33:52 62° SE visible
26 Jun 8.2 20:09:14 10° WNW 20:21:27 81° NNE 20:26:34 18° E visible
26 Jun 9.2 22:40:21 10° W 22:43:50 22° WSW 22:43:50 22° WSW visible
